FW2270 Weather Reports


Display with metric or nautical units.
time (UTC)temp
F
wind
direction
speed
MPH
gust
MPH
rain 1hr
in
rain 24hr
in
rain mn
in
humidity
%
barometer
mb
20260510040425 52 261 1.0 5.0 0.00 0.00 0.00 95 1014.9
20260510035418 52 275 0.0 4.0 0.00 0.00 0.00 95 1014.8
20260510034417 52 277 1.0 4.0 0.00 0.00 0.00 95 1014.8
20260510033451 53 272 0.0 3.0 0.00 0.00 0.00 94 1014.6
20260510032423 53 286 1.0 5.0 0.00 0.00 0.00 94 1014.6
20260510031415 53 261 2.0 9.0 0.00 0.00 0.00 93 1014.5
20260510030431 54 289 2.0 7.0 0.00 0.00 0.00 92 1014.6
20260510025424 55 277 1.0 5.0 0.00 0.00 0.00 91 1014.6
20260510024419 56 275 2.0 7.0 0.00 0.00 0.00 90 1014.5
20260510023418 57 271 4.0 8.0 0.00 0.00 0.00 89 1014.5
20260510022433 58 284 1.0 9.0 0.00 0.00 0.00 87 1014.4
20260510021426 58 271 3.0 11.0 0.00 0.00 0.00 86 1014.4
20260510020438 60 314 1.0 6.0 0.00 0.00 0.00 86 1014.5
20260510015436 60 288 1.0 7.0 0.00 0.00 0.00 85 1014.5
20260510014428 60 226 1.0 7.0 0.00 0.00 0.00 85 1014.5
20260510013442 61 286 1.0 7.0 0.00 0.00 0.00 84 1014.5
20260510012414 61 251 2.0 10.0 0.00 0.00 0.00 85 1014.5
20260510011413 61 281 3.0 10.0 0.00 0.00 0.00 85 1014.5
20260510010427 61 270 4.0 10.0 0.00 0.00 0.00 84 1014.6
20260510005421 62 290 4.0 10.0 0.00 0.00 0.00 83 1014.6
20260510004417 62 275 3.0 10.0 0.00 0.00 0.00 83 1014.6
20260510003431 62 270 3.0 10.0 0.00 0.00 0.00 83 1014.8
20260510002426 63 286 3.0 13.0 0.00 0.00 0.00 83 1014.9
20260510001420 63 285 3.0 7.0 0.00 0.00 0.00 84 1015.0
20260510000440 62 286 4.0 10.0 0.00 0.00 0.00 83 1014.9
20260509235430 63 275 3.0 9.0 0.00 0.00 0.00 84 1014.9
20260509234424 63 263 4.0 12.0 0.00 0.00 0.00 83 1015.1
20260509233419 63 267 5.0 11.0 0.00 0.00 0.00 82 1015.2
20260509232437 64 282 3.0 10.0 0.00 0.00 0.00 83 1015.2
20260509231430 64 284 4.0 8.0 0.00 0.00 0.00 82 1015.2
20260509230424 64 297 3.0 12.0 0.00 0.00 0.00 83 1015.3
20260509225421 64 292 2.0 9.0 0.00 0.00 0.00 83 1015.2
20260509224514 64 286 3.0 11.0 0.00 0.00 0.00 85 1015.4
20260509223423 64 273 5.0 10.0 0.00 0.00 0.00 83 1015.5
20260509222418 64 265 6.0 12.0 0.00 0.00 0.00 82 1015.6
20260509221415 65 261 7.0 14.0 0.00 0.00 0.00 80 1015.8
20260509220429 65 280 4.0 13.0 0.00 0.00 0.00 81 1015.9
20260509215422 65 277 5.0 10.0 0.00 0.00 0.00 82 1016.0
20260509214416 65 284 4.0 10.0 0.00 0.00 0.00 81 1016.1
20260509213454 65 266 3.0 12.0 0.00 0.00 0.00 82 1016.2
20260509212426 65 319 6.0 12.0 0.00 0.00 0.00 79 1016.2
20260509211420 65 263 4.0 13.0 0.00 0.00 0.00 82 1016.2
20260509210434 66 270 5.0 12.0 0.00 0.00 0.00 80 1016.2
20260509205429 65 279 6.0 13.0 0.00 0.00 0.00 78 1016.4
20260509204424 66 272 6.0 10.0 0.00 0.00 0.00 78 1016.3
20260509203419 65 288 5.0 14.0 0.00 0.00 0.00 80 1016.4
20260509202438 65 315 7.0 11.0 0.00 0.00 0.00 80 1016.4
20260509201451 66 275 7.0 13.0 0.00 0.00 0.00 80 1016.4
20260509200424 66 330 3.0 10.0 0.00 0.00 0.00 80 1016.6
20260509195417 66 277 5.0 11.0 0.00 0.00 0.00 78 1016.6
20260509194416 67 312 4.0 10.0 0.00 0.00 0.00 78 1016.6
20260509193431 68 287 4.0 9.0 0.00 0.00 0.00 78 1016.5
20260509192425 68 251 4.0 11.0 0.00 0.00 0.00 76 1016.5
20260509191419 69 265 4.0 10.0 0.00 0.00 0.00 77 1016.5
20260509190417 70 253 3.0 6.0 0.00 0.00 0.00 75 1016.5
20260509185429 70 253 1.0 5.0 0.00 0.00 0.00 78 1016.7
20260509184421 69 282 3.0 7.0 0.00 0.00 0.00 74 1016.9
20260509183513 69 232 2.0 6.0 0.00 0.00 0.00 73 1016.9
20260509111427 48 270 0.0 0.0 0.00 0.00 0.00 97 1016.5
20260509110442 47 270 0.0 0.0 0.00 0.00 0.00 96 1016.5
20260509105433 48 270 0.0 0.0 0.00 0.00 0.00 96 1016.4
20260509104431 48 270 0.0 0.0 0.00 0.00 0.00 96 1016.4
20260509103443 48 270 0.0 0.0 0.00 0.00 0.00 96 1016.4
20260509102416 48 270 0.0 0.0 0.00 0.00 0.00 96 1016.5
20260509101430 48 270 0.0 0.0 0.00 0.00 0.00 96 1016.5
20260509100429 48 270 0.0 0.0 0.00 0.00 0.00 96 1016.6
20260509095422 48 270 0.0 1.0 0.00 0.00 0.00 96 1016.5
20260509094417 49 270 0.0 2.0 0.00 0.00 0.00 96 1016.4
20260509093415 48 270 0.0 1.0 0.00 0.00 0.00 96 1016.5
20260509092429 48 270 0.0 2.0 0.00 0.00 0.00 96 1016.5
20260509091423 48 277 0.0 4.0 0.00 0.00 0.00 96 1016.6
20260509090438 48 276 0.0 1.0 0.00 0.00 0.00 96 1016.7
20260509085433 48 276 0.0 1.0 0.00 0.00 0.00 96 1016.7
20260509084426 48 276 0.0 1.0 0.00 0.00 0.00 95 1016.9
20260509083421 48 276 0.0 1.0 0.00 0.00 0.00 95 1016.9
20260509082454 49 276 0.0 1.0 0.00 0.00 0.00 95 1016.8
20260509081452 49 276 0.0 2.0 0.00 0.00 0.00 95 1016.8
20260509080424 49 276 0.0 1.0 0.00 0.00 0.00 95 1016.9
20260509075436 49 276 0.0 2.0 0.00 0.00 0.00 95 1016.9
20260509074430 50 276 2.0 3.0 0.00 0.00 0.00 95 1016.9
20260509073429 50 278 0.0 4.0 0.00 0.00 0.00 95 1017.0
20260509072424 50 274 1.0 4.0 0.00 0.00 0.00 95 1017.0
20260509071438 50 282 2.0 4.0 0.00 0.00 0.00 95 1017.1
20260509070415 50 267 3.0 4.0 0.00 0.00 0.00 95 1017.1
20260509065428 50 270 3.0 5.0 0.00 0.00 0.00 94 1017.3
20260509064442 50 265 0.0 4.0 0.00 0.00 0.00 94 1017.2
20260509063415 50 265 3.0 5.0 0.00 0.00 0.00 94 1017.3
20260509062433 50 260 3.0 6.0 0.00 0.00 0.00 94 1017.3
20260509061427 50 270 2.0 6.0 0.00 0.00 0.00 94 1017.3
20260509060419 51 265 4.0 6.0 0.00 0.00 0.00 94 1017.4
20260509055431 51 281 4.0 7.0 0.00 0.00 0.00 94 1017.4
20260509054430 51 266 3.0 6.0 0.00 0.00 0.00 94 1017.4
20260509053424 51 270 3.0 5.0 0.00 0.00 0.00 94 1017.5
20260509052418 51 260 3.0 5.0 0.00 0.00 0.00 94 1017.6
20260509051433 51 265 3.0 5.0 0.00 0.00 0.00 95 1017.4
20260509045450 51 270 0.0 4.0 0.00 0.00 0.00 94 1017.4
20260509044421 51 273 0.0 3.0 0.00 0.00 0.00 94 1017.2
20260509043420 51 286 1.0 2.0 0.00 0.00 0.00 94 1017.2
20260509042433 51 286 2.0 4.0 0.00 0.00 0.00 94 1017.2
20260509041428 51 265 2.0 5.0 0.00 0.00 0.00 94 1017.1